sat.trackr.live / text

‹ back to catalog

STARLINK-3737

NORAD 52114 · 2022-029AC

PAYLOAD ACTIVE UNKNOWN

§ Identity

Operator
Country
US
Launch date
2022-03-19
Launch site
AFETR
Launch vehicle
Mass (kg)
RCS (m²)

Purposes: comms

External: N2YO · Heavens-Above · Gunter

§ Orbital elements

Epoch: 2026-09-20T01:21:58.694112Z

Period
93.85 min
Inclination
53.1659°
Eccentricity
0.0000089
Mean motion
15.34353630 rev/d
Perigee alt
462.8 km
Apogee alt
462.9 km
Semi-major
6,841.0 km
B*
-4.1242e-4
RAAN
271.4324°
Arg perigee
41.7092°
Mean anomaly
318.3918°
Rev number
25,033

§ Raw data

STARLINK-37371 52114U 22029AC  26263.05692933 -.00014262  00000+0 -41242-3 0  99962 52114  53.1659 271.4324 0000089  41.7092 318.3918 15.34353630250336

JSON: /api/v1/satellites/52114 · /tle

For live sub-satellite position, see the globe view (requires WebGL).

§ Visibility from observer

Set your observer location to see the next 7 days of passes ≥ 10°. The values pass through the URL so the page stays shareable.

No JS? Fill the form by hand. The geolocation button needs JavaScript.